This demonstration page uses our WeatherBlox Daily Observations layout. Learn more.

Left ArrowRight Arrow

Hourly Observations for December 10, 2021

Temp ( °F °C ) Dew Point ( °F °C ) Humidity (%) Winds ( mph kmh ) Pressure ( in mb ) Visibility ( mi km ) Precip ( " mm )
12:51 am 00:51 Mostly Cloudy 53 11.7 40 4.4 61 61 ENE 3 6 29.74 1007 10 16 0.00 0.00
1:51 am 01:51 Mostly Cloudy 54 12.2 44 6.7 69 69 VRB 7 11 29.75 1008 10 16 0.00 0.00
2:51 am 02:51 Partly Cloudy 52 11.1 45 7.2 77 77 ENE 3 6 29.72 1007 10 16 0.00 0.00
3:51 am 03:51 Cloudy 52 11.1 45 7.2 77 77 ENE 6 9 29.73 1007 10 16 0.00 0.00
4:51 am 04:51 Cloudy 49 9.4 47 8.3 93 93 NW 16 26 29.77 1008 10 16 0.00 0.00
5:51 am 05:51 Cloudy 48 8.9 46 7.8 93 93 NW 13 20 29.80 1009 10 16 0.02 0.51
6:51 am 06:51 Cloudy 48 8.9 46 7.8 93 93 NW 16 26 29.83 1010 10 16 0.00 0.00
7:41 am 07:41 Cloudy 47 8.3 46 7.8 97 97 NW 13 20 29.93 1014 10 16 0.00 0.00
7:51 am 07:51 Cloudy 47 8.3 46 7.8 97 97 NW 13 20 29.88 1012 10 16 0.00 0.00
8:51 am 08:51 Cloudy 48 8.9 45 7.2 89 89 NW 13 20 29.90 1013 10 16 0.00 0.00
9:51 am 09:51 Cloudy 49 9.4 47 8.3 93 93 NW 20 31 29.94 1014 10 16 0.01 0.25
10:51 am 10:51 Mostly Cloudy 53 11.7 45 7.2 74 74 NW 21 33 29.93 1014 10 16 0.00 0.00
11:51 am 11:51 Sunny 55 12.8 39 3.9 55 55 NW 23 37 29.91 1013 10 16 0.00 0.00
12:51 pm 12:51 Sunny 56 13.3 38 3.3 51 51 NW 15 24 29.92 1013 10 16 0.00 0.00
1:51 pm 13:51 Sunny 57 13.9 36 2.2 45 45 WNW 18 30 29.92 1013 10 16 0.00 0.00
2:51 pm 14:51 Sunny 58 14.4 36 2.2 44 44 NNW 16 26 29.92 1013 10 16 0.00 0.00
3:51 pm 15:51 Sunny 57 13.9 35 1.7 44 44 W 17 28 29.94 1014 10 16 0.00 0.00
4:51 pm 16:51 Sunny 54 12.2 34 1.1 47 47 WNW 10 17 29.97 1015 10 16 0.00 0.00
5:51 pm 17:51 Clear 51 10.6 36 2.2 56 56 NW 7 11 30.01 1016 10 16 0.00 0.00
6:51 pm 18:51 Clear 48 8.9 36 2.2 63 63 WNW 6 9 30.04 1017 10 16 0.00 0.00
7:51 pm 19:51 Clear 50 10 37 2.8 61 61 NW 10 17 30.03 1017 10 16 0.00 0.00
8:51 pm 20:51 Clear 49 9.4 37 2.8 64 64 NW 7 11 30.06 1018 10 16 0.00 0.00
9:51 pm 21:51 Clear 50 10 36 2.2 59 59 NNW 5 7 30.07 1018 10 16 0.00 0.00
10:51 pm 22:51 Clear 47 8.3 38 3.3 71 71 W 8 13 30.09 1019 10 16 0.00 0.00
11:51 pm 23:51 Clear 46 7.8 38 3.3 73 73 WNW 7 11 30.09 1019 10 16 0.00 0.00

Powered by AerisWeather